Martinsburg, WV

6:20 AM EDT on October 17, 2017 (GMT -0400)
Eastern W Va Regional-Shepherd

Weather History for KMRB - March, 2015

Change the Weather History Date:

Tuesday, March 10, 2015

  Actual Average Record
Temperature  
Mean Temperature 40 °F 40 °F  
Max Temperature 47 °F 50 °F 80 °F (2016)
Min Temperature 32 °F 30 °F 1 °F (1984)
Degree Days  
Heating Degree Days 25 25  
Month to date heating degree days 316 266  
Since 1 July heating degree days 4239 4222  
Cooling Degree Days 0 0  
Month to date cooling degree days 0 0  
Year to date cooling degree days 0 0  
Moisture  
Dew Point 37 °F    
Average Humidity 77    
Maximum Humidity 96    
Minimum Humidity 58    
Precipitation  
Precipitation 0.36 in 0.10 in 1.26 in (2011)
Month to date precipitation 1.04 1.00  
Year to date precipitation 3.33 5.78  
Sea Level Pressure  
Sea Level Pressure 30.13 in    
Wind  
Wind Speed 2 mph (ENE)    
Max Wind Speed 7 mph    
Max Gust Speed 12 mph    
Visibility 4 miles    
Events Fog , Rain    
T = Trace of Precipitation, MM = Missing Value Source: NWS Daily Summary

Daily Weather History Graph

Daily Weather History Graph

Search for Another Location

Airport or City:

Trip Planner

Search our weather history database for the weather conditions in past years. The results will help you decide how hot, cold, wet, or windy it might be!

Date:

Astronomy

Mar. 10, 2015 Rise Set
Actual Time 7:31 AM EDT 7:13 PM EDT
Civil Twilight 7:04 AM EDT 7:40 PM EDT
Nautical Twilight 6:33 AM EDT 8:11 PM EDT
Astronomical Twilight 6:02 AM EDT 8:42 PM EDT
Moon No Moon Rise 9:59 AM EDT (3/10)
Length of Visible Light 12h 35m
Length of Day
11h 41m
Waning Gibbous, 79% of the Moon is Illuminated
Mar 10
Waning Gibbous
Mar 13
Last Quarter
Mar 20
New
Mar 27
First Quarter
Apr 4
Full

Hourly Weather History & Observations

Time (EDT) Temp. Windchill Dew Point Humidity Pressure Visibility Wind Dir Wind Speed Gust Speed Precip Events Conditions
12:53 AM 36.0 °F - 28.9 °F 76% 30.26 in 10.0 mi Calm Calm - N/A   Clear
1:53 AM 37.0 °F - 30.0 °F 76% 30.24 in 10.0 mi Calm Calm - N/A   Clear
2:53 AM 35.1 °F - 28.9 °F 78% 30.24 in 10.0 mi Calm Calm - N/A   Clear
3:53 AM 34.0 °F - 28.0 °F 79% 30.22 in 10.0 mi Calm Calm - N/A   Clear
4:53 AM 32.0 °F - 28.0 °F 85% 30.22 in 8.0 mi Calm Calm - N/A   Clear
5:53 AM 34.0 °F - 28.9 °F 82% 30.24 in 9.0 mi Calm Calm - N/A   Clear
6:53 AM 35.1 °F 32.2 °F 28.9 °F 78% 30.24 in 9.0 mi ENE 3.5 mph - N/A   Clear
7:53 AM 36.0 °F - 30.0 °F 79% 30.24 in 7.0 mi Calm Calm - N/A   Mostly Cloudy
8:53 AM 37.9 °F 35.5 °F 32.0 °F 79% 30.24 in 7.0 mi Variable 3.5 mph - N/A   Scattered Clouds
9:53 AM 43.0 °F 41.3 °F 32.0 °F 65% 30.25 in 9.0 mi North 3.5 mph - N/A   Overcast
10:53 AM 46.0 °F 44.8 °F 32.0 °F 58% 30.23 in 10.0 mi Variable 3.5 mph - N/A   Overcast
11:53 AM 46.9 °F - 35.1 °F 63% 30.23 in 9.0 mi SSE 5.8 mph - 0.00 in Rain Light Rain
12:53 PM 45.0 °F 42.6 °F 37.0 °F 74% 30.22 in 6.0 mi SSE 4.6 mph - 0.01 in Rain Light Rain
1:53 PM 46.0 °F - 39.0 °F 76% 30.18 in 4.0 mi Calm Calm - 0.01 in Rain Light Rain
2:53 PM 45.0 °F 43.5 °F 39.9 °F 82% 30.14 in 3.0 mi ESE 3.5 mph - 0.07 in Rain Light Rain
3:10 PM 44.1 °F 42.5 °F 39.9 °F 85% 30.11 in 2.5 mi East 3.5 mph - 0.01 in Rain Light Rain
3:24 PM 44.1 °F 42.5 °F 41.0 °F 89% 30.10 in 1.8 mi ESE 3.5 mph - 0.02 in Rain Light Rain
3:33 PM 44.1 °F - 41.0 °F 89% 30.11 in 2.5 mi Calm Calm - 0.02 in Rain Light Rain
3:45 PM 44.1 °F - 39.9 °F 85% 30.09 in 1.8 mi Calm Calm - 0.04 in Rain Light Rain
3:53 PM 45.0 °F - 41.0 °F 86% 30.11 in 1.8 mi Calm Calm - 0.04 in Rain Light Rain
4:53 PM 44.1 °F - 41.0 °F 89% 30.09 in 1.5 mi Calm Calm - 0.05 in Rain Light Rain
5:02 PM 44.1 °F 42.5 °F 41.0 °F 89% 30.07 in 2.0 mi SE 3.5 mph - 0.00 in Rain Light Rain
5:31 PM 45.0 °F - 42.1 °F 90% 30.06 in 1.5 mi Calm Calm - 0.00 in   Overcast
5:53 PM 44.1 °F - 41.0 °F 89% 30.06 in 1.5 mi Calm Calm - 0.01 in Rain Light Rain
6:53 PM 44.1 °F - 41.0 °F 89% 30.06 in 1.0 mi Calm Calm - 0.04 in Rain Rain
7:45 PM 44.1 °F 42.5 °F 41.0 °F 89% 30.03 in 1.8 mi East 3.5 mph - 0.07 in Rain Light Rain
7:53 PM 43.0 °F - 41.0 °F 93% 30.05 in 1.0 mi Calm Calm - 0.08 in Rain Light Rain
8:21 PM 43.0 °F - 39.9 °F 89% 30.03 in 0.5 mi Calm Calm - 0.02 in Fog , Rain Light Rain
8:53 PM 43.0 °F 40.3 °F 39.9 °F 89% 30.04 in 0.8 mi North 4.6 mph - 0.04 in Rain Light Rain
9:00 PM 43.0 °F 39.5 °F 39.9 °F 89% 30.03 in 1.0 mi North 5.8 mph - 0.00 in Rain Light Rain
9:08 PM 43.0 °F 40.3 °F 39.9 °F 89% 30.03 in 1.0 mi North 4.6 mph - 0.00 in Rain Light Rain
9:19 PM 43.0 °F 41.3 °F 39.9 °F 89% 30.03 in 1.2 mi North 3.5 mph - 0.00 in Rain Light Rain
9:53 PM 43.0 °F 40.3 °F 39.9 °F 89% 30.03 in 1.2 mi NNE 4.6 mph - 0.01 in Rain Light Rain
10:53 PM 43.0 °F 41.3 °F 39.9 °F 89% 30.02 in 1.2 mi North 3.5 mph - 0.00 in   Overcast
11:53 PM 43.0 °F - 39.9 °F 89% 30.01 in 0.8 mi Calm Calm - N/A   Overcast